Wind_Speed
14 13 11 9 8 6 6 5 5 5 4 4 5 7 7 7 8 9 9 10 10 10 10 11 11 12 12 12 12 11 11 10 9 8 8 8 7 7 6 6 6 5 5 5
16 16 12 11 9 9 9 7 7 6 5 4 5 6 7 6 7 8 8 8 9 9 9 10 10 10 11 11 11 11 10 10 9 8 8 8 8 7 7 6 6 6 5 5
18 15 13 13 12 12 12 10 9 9 6 5 7 7 8 7 7 8 8 8 8 8 8 8 9 10 10 10 10 11 10 9 8 8 8 7 8 7 6 6 6 6 6 5
20 18 17 16 15 14 13 11 10 9 8 6 6 8 10 9 7 8 7 7 7 8 8 7 7 8 9 9 10 10 10 9 8 8 8 7 7 7 6 6 5 6 6 5
21 20 20 20 18 16 15 12 11 10 9 9 8 9 10 10 9 8 8 6 7 7 7 7 6 7 8 8 9 10 10 9 9 8 8 8 8 7 7 6 6 6 6 6
23 20 20 20 19 17 16 14 13 11 11 12 10 11 11 9 9 8 8 7 6 6 6 7 7 6 7 7 8 9 9 9 9 9 8 8 8 8 7 7 7 6 5 5
22 22 21 21 19 18 18 16 14 13 15 14 11 12 13 12 11 9 8 8 7 6 6 7 7 6 6 6 7 8 8 9 9 8 8 8 8 8 8 7 7 7 7 6
22 22 22 22 21 21 20 19 18 16 14 12 11 12 13 14 13 12 10 10 8 8 8 8 8 7 6 6 6 7 7 8 8 8 8 8 8 8 8 8 8 7 7 8
23 23 21 22 21 22 22 21 18 17 15 15 14 13 17 17 14 13 13 12 10 10 9 9 8 8 7 7 7 7 7 8 8 9 9 9 8 8 8 8 8 8 8 8
24 24 23 23 22 23 23 21 19 19 18 18 16 16 16 17 16 15 15 15 12 11 11 11 10 9 9 8 8 8 7 8 8 9 8 8 9 8 8 9 9 9 9 8
26 25 24 24 24 23 23 22 22 22 20 19 18 17 16 17 17 17 16 17 15 14 13 13 13 11 11 10 10 9 9 9 9 9 9 9 9 9 9 9 9 9 9 9
27 26 26 25 24 23 24 24 23 24 23 22 20 20 17 16 17 18 19 18 17 15 15 15 15 13 12 12 12 11 10 10 10 10 10 10 10 10 10 10 10 10 10 10
29 28 27 25 24 25 25 26 25 25 23 22 21 22 19 20 21 20 20 19 18 18 18 17 16 16 14 14 13 13 12 11 11 11 11 11 11 11 11 11 11 11 11 11
32 31 30 28 27 26 26 26 25 26 25 23 23 23 22 24 22 21 20 20 20 19 19 20 19 17 16 15 15 14 14 13 13 13 12 12 13 12 12 12 12 11 12 13
33 33 32 31 29 28 27 27 26 27 27 26 25 25 23 21 23 23 23 23 23 21 21 21 19 17 17 17 16 16 15 15 15 14 14 14 13 13 13 13 13 13 14 14
34 34 33 33 32 30 29 28 28 27 27 27 26 26 23 23 24 24 26 26 25 23 22 22 21 20 19 18 17 17 16 16 16 16 15 15 14 14 14 14 14 15 15 15
35 35 35 33 32 33 33 31 30 28 27 28 28 27 25 26 26 27 28 28 27 26 25 24 22 21 20 20 19 19 18 18 17 17 17 16 15 15 15 15 16 16 17 17
35 35 35 34 33 35 34 31 30 29 28 28 29 29 29 29 29 29 30 29 29 28 27 26 23 22 22 22 21 21 20 19 19 19 19 18 18 17 17 18 18 19 18 19
34 35 35 34 35 35 34 32 30 31 32 30 30 30 28 28 29 30 30 30 29 29 28 27 25 24 24 23 23 22 21 21 21 21 21 20 20 19 18 19 20 20 21 20
35 36 36 36 36 35 33 32 30 31 34 32 31 30 29 30 30 31 31 30 30 29 28 28 27 27 26 24 24 24 24 23 23 22 22 22 21 20 20 21 21 22 23 23
36 37 37 37 37 35 33 31 30 31 33 32 32 31 31 31 32 32 32 31 30 30 30 30 29 29 28 27 26 26 26 26 24 23 24 24 23 22 22 23 24 24 25 24
36 36 37 37 37 37 35 32 32 32 33 32 32 32 32 31 32 32 33 32 31 31 32 31 31 31 30 29 28 28 28 27 25 25 25 25 24 24 24 25 26 26 26 26
35 34 34 36 36 34 34 35 35 34 34 33 33 32 33 33 33 33 33 34 34 33 33 33 32 32 32 31 31 30 29 29 28 27 27 27 27 27 27 27 27 27 27 28
36 36 36 36 38 38 37 37 36 35 34 34 33 33 33 33 34 34 34 33 34 34 34 34 33 33 33 32 32 31 31 30 30 30 29 29 29 29 28 29 29 29 29 30
34 35 37 38 38 39 39 37 36 36 36 35 34 34 34 34 34 34 34 33 33 35 35 35 35 34 34 33 33 32 32 32 32 31 31 31 31 30 31 30 31 31 31 31
34 35 35 36 36 38 38 36 35 36 37 36 35 35 35 35 36 33 33 33 33 34 34 34 36 35 34 34 34 33 33 33 34 33 32 32 32 32 32 31 32 32 32 32
Wind_Direction
208 210 205 205 211 222 241 245 255 273 284 302 316 323 336 347 357 6 12 18 24 27 32 33 35 36 37 38 37 36 38 38 39 39 39 40 47 56 56 61 66 63 53 51
214 215 212 206 204 214 232 239 245 257 272 283 293 302 307 338 346 350 358 4 14 19 27 30 30 33 32 33 33 31 32 35 38 38 38 35 37 47 52 53 53 56 53 48
220 219 219 215 215 225 228 228 239 246 256 280 297 304 306 329 334 336 350 355 4 9 14 23 25 26 26 28 28 28 26 28 30 31 31 28 27 30 34 38 41 44 44 41
222 216 218 221 222 229 235 227 237 242 251 258 273 288 299 312 317 319 335 345 352 357 359 5 12 18 19 21 23 24 25 26 27 26 23 21 20 23 23 19 20 26 25 22
223 219 221 222 223 225 232 228 231 240 248 254 258 264 279 295 305 317 323 330 335 343 347 346 358 7 10 15 17 19 20 23 22 20 18 16 18 17 18 15 8 4 7 8
222 223 224 225 224 225 227 231 238 242 245 248 255 261 268 273 288 302 312 312 315 324 333 339 343 350 358 5 11 14 14 14 15 15 15 15 13 12 10 6 6 1 360 3
225 225 224 226 224 225 227 228 238 247 243 245 249 260 264 266 277 281 293 301 306 312 320 329 333 334 341 348 357 6 7 6 6 7 8 7 5 3 4 3 360 359 1 5
228 229 227 227 225 223 225 224 231 240 250 255 248 249 258 266 271 277 287 296 299 301 308 314 320 324 329 334 337 348 353 355 356 357 358 358 357 357 358 358 358 360 357 356
222 229 228 230 226 224 225 224 231 245 248 253 249 250 260 267 266 271 283 289 293 294 299 304 308 311 317 323 327 333 341 345 347 348 349 352 352 349 349 350 350 352 351 347
221 227 223 225 228 228 226 225 225 234 243 250 248 247 253 266 267 268 276 283 285 284 289 295 299 302 307 311 315 318 326 333 337 340 342 343 343 342 342 341 342 341 340 336
222 227 226 224 226 225 227 225 226 231 233 244 255 255 255 262 262 262 269 276 278 281 282 284 288 294 299 303 305 309 311 315 321 327 334 334 334 334 333 332 332 330 331 333
222 226 230 227 229 227 226 228 227 231 232 232 245 254 251 257 260 265 266 266 268 272 275 277 280 284 289 294 297 300 301 304 307 312 317 322 327 328 329 328 326 327 326 329
222 225 229 228 230 232 230 228 228 229 234 238 244 250 250 254 258 261 261 262 261 263 265 269 273 276 282 286 290 292 293 295 299 302 306 310 315 318 322 325 326 323 320 321
224 226 225 225 227 230 236 232 230 230 231 236 240 245 249 253 256 260 259 260 259 259 259 262 267 271 278 281 284 285 285 288 292 296 299 302 305 311 315 317 318 317 318 318
227 230 228 225 226 230 235 237 235 234 234 236 240 243 245 252 258 256 257 258 256 255 256 258 263 269 272 276 278 281 280 281 286 292 296 299 300 304 309 311 312 313 315 314
229 231 231 229 226 230 232 233 235 238 239 240 243 244 242 248 255 254 255 255 256 256 255 255 258 263 267 270 274 279 278 277 281 286 291 295 297 299 301 305 307 309 310 310
231 231 234 233 231 233 234 232 232 235 238 242 246 246 245 247 248 252 254 254 255 255 252 253 255 258 262 266 269 274 277 276 278 281 286 289 292 292 294 296 299 302 305 307
235 236 236 235 234 237 238 237 238 240 241 243 247 249 250 250 252 252 253 255 255 254 253 253 254 256 259 263 266 268 271 273 274 278 281 284 286 288 289 291 296 300 302 304
236 237 237 236 237 241 241 240 239 241 242 242 245 247 249 250 252 252 252 252 254 253 253 254 254 256 258 260 262 264 267 270 272 275 277 279 281 283 286 288 291 295 297 297
235 236 237 237 238 239 241 241 241 242 245 244 245 246 247 247 249 251 252 251 251 250 250 250 251 254 256 256 258 262 267 270 270 272 275 276 277 280 282 286 288 291 293 293
236 236 237 237 240 240 240 240 240 240 244 244 245 248 248 246 246 249 251 251 249 248 248 250 251 254 255 256 258 260 264 267 267 269 274 276 278 280 283 285 287 289 292 291
236 236 236 237 238 238 239 240 241 242 244 244 245 246 248 248 248 249 250 249 248 248 249 251 253 254 255 256 257 259 262 266 268 268 270 273 276 279 281 283 285 287 289 290
235 236 238 240 239 238 239 242 245 247 247 245 248 248 248 248 249 250 250 249 250 250 250 252 252 251 253 255 257 259 262 265 267 267 269 271 273 278 281 282 284 287 290 291
235 233 234 238 240 241 241 241 243 245 248 248 249 250 250 251 250 252 250 250 251 251 252 252 251 251 252 253 256 258 261 263 265 267 268 270 273 276 279 281 283 285 287 290
234 235 236 237 238 240 241 242 244 246 246 247 249 250 251 251 251 250 249 250 251 252 252 251 251 251 253 254 255 257 259 262 264 266 269 270 273 277 276 278 280 282 284 286
234 236 237 238 238 239 240 241 244 245 246 247 249 250 251 252 252 253 251 252 252 252 251 250 250 252 253 253 254 256 258 261 263 265 268 271 274 277 277 277 279 281 282 284
Height
5901 5905 5907 5910 5913 5916 5917 5918 5918 5918 5917 5916 5915 5913 5912 5911 5910 5909 5908 5906 5905 5903 5902 5901 5899 5898 5896 5895 5894 5893 5891 5890 5889 5888 5887 5886 5886 5885 5884 5884 5883 5883 5883 5882
5900 5903 5906 5909 5912 5915 5916 5917 5917 5918 5916 5916 5916 5915 5913 5912 5911 5911 5909 5908 5907 5906 5904 5903 5901 5900 5899 5897 5896 5895 5893 5892 5891 5890 5889 5888 5887 5887 5886 5886 5885 5885 5884 5884
5898 5902 5905 5908 5910 5912 5914 5916 5916 5917 5916 5916 5915 5915 5914 5913 5912 5912 5910 5909 5908 5907 5906 5904 5903 5902 5901 5899 5898 5897 5895 5895 5894 5892 5891 5890 5890 5889 5888 5887 5887 5886 5886 5885
5895 5899 5902 5905 5908 5910 5911 5913 5914 5915 5915 5915 5917 5916 5914 5913 5912 5912 5911 5910 5909 5908 5907 5905 5904 5903 5902 5901 5900 5898 5897 5896 5895 5894 5893 5892 5891 5890 5889 5889 5888 5888 5887 5886
5891 5895 5898 5902 5905 5908 5909 5910 5912 5913 5913 5914 5915 5915 5914 5913 5912 5912 5911 5910 5909 5908 5907 5906 5904 5904 5903 5902 5901 5900 5899 5897 5897 5895 5894 5893 5892 5892 5891 5890 5889 5888 5888 5887
5888 5892 5895 5899 5902 5904 5906 5908 5909 5910 5911 5912 5913 5914 5913 5911 5911 5911 5910 5910 5909 5908 5908 5907 5905 5905 5904 5903 5902 5901 5900 5899 5898 5897 5896 5894 5894 5893 5892 5891 5890 5889 5888 5887
5884 5888 5891 5894 5898 5900 5903 5905 5907 5908 5908 5909 5912 5912 5912 5910 5910 5909 5909 5909 5908 5908 5908 5907 5906 5905 5904 5904 5903 5902 5901 5900 5899 5898 5897 5895 5894 5893 5892 5891 5890 5889 5888 5887
5880 5884 5887 5890 5893 5896 5899 5902 5904 5905 5907 5908 5909 5910 5910 5909 5908 5908 5908 5908 5908 5908 5907 5906 5906 5905 5904 5904 5903 5902 5901 5900 5899 5898 5897 5896 5895 5894 5893 5892 5891 5890 5889 5888
5877 5880 5884 5886 5889 5892 5895 5898 5901 5904 5905 5906 5906 5907 5907 5906 5906 5906 5906 5907 5907 5906 5906 5906 5905 5904 5904 5903 5903 5902 5901 5900 5899 5898 5897 5896 5895 5894 5893 5892 5891 5890 5889 5889
5872 5875 5879 5881 5884 5887 5890 5894 5897 5899 5900 5901 5904 5903 5903 5903 5904 5905 5904 5904 5905 5905 5904 5904 5904 5903 5903 5903 5902 5901 5901 5900 5899 5898 5897 5896 5895 5894 5893 5892 5891 5890 5889 5888
5866 5870 5874 5876 5879 5882 5886 5889 5891 5894 5897 5899 5900 5903 5901 5900 5901 5901 5902 5901 5902 5902 5902 5902 5901 5901 5901 5901 5901 5900 5900 5899 5899 5898 5897 5896 5895 5894 5893 5892 5891 5890 5889 5888
5860 5864 5867 5871 5874 5877 5881 5883 5886 5889 5891 5893 5895 5898 5896 5896 5897 5897 5898 5898 5898 5899 5899 5899 5899 5898 5899 5899 5899 5899 5898 5898 5897 5897 5896 5895 5894 5893 5892 5891 5890 5889 5888 5887
5853 5857 5861 5866 5870 5872 5874 5877 5880 5884 5886 5888 5891 5893 5892 5892 5893 5893 5894 5894 5894 5895 5896 5895 5895 5895 5896 5897 5897 5896 5896 5896 5896 5895 5894 5894 5893 5892 5891 5890 5889 5888 5886 5885
5846 5849 5855 5860 5863 5866 5868 5871 5874 5877 5880 5883 5885 5886 5887 5887 5888 5889 5888 5889 5890 5891 5892 5892 5892 5892 5893 5893 5894 5894 5893 5893 5893 5893 5892 5892 5891 5890 5889 5888 5887 5886 5885 5884
5838 5842 5846 5851 5856 5859 5862 5865 5868 5871 5873 5877 5879 5879 5881 5881 5882 5883 5884 5885 5885 5886 5887 5888 5888 5888 5889 5890 5890 5890 5890 5890 5890 5890 5890 5889 5888 5888 5887 5886 5885 5884 5883 5882
5831 5834 5838 5843 5848 5852 5855 5858 5862 5865 5867 5869 5871 5872 5873 5876 5876 5877 5878 5879 5880 5881 5882 5883 5884 5885 5885 5886 5886 5886 5886 5886 5887 5887 5886 5886 5885 5885 5884 5883 5883 5882 5881 5879
5823 5827 5831 5835 5840 5843 5846 5851 5854 5857 5860 5862 5863 5866 5867 5868 5870 5871 5871 5872 5874 5875 5876 5877 5879 5880 5881 5881 5882 5882 5882 5882 5883 5883 5883 5882 5882 5882 5881 5880 5879 5878 5877 5876
5816 5820 5823 5828 5832 5833 5840 5844 5847 5850 5852 5855 5857 5859 5859 5861 5862 5864 5865 5865 5867 5869 5870 5872 5873 5874 5876 5876 5877 5877 5878 5878 5878 5879 5878 5878 5878 5878 5877 5877 5876 5875 5874 5873
5809 5812 5815 5820 5822 5826 5832 5835 5839 5842 5843 5847 5849 5850 5851 5853 5854 5856 5857 5858 5860 5862 5863 5865 5867 5868 5870 5871 5872 5871 5872 5873 5873 5874 5873 5873 5873 5873 5873 5873 5872 5871 5870 5869
5800 5803 5807 5811 5814 5818 5824 5828 5830 5833 5834 5838 5839 5841 5842 5845 5846 5847 5848 5850 5852 5854 5856 5858 5860 5862 5863 5864 5866 5866 5867 5867 5868 5868 5868 5868 5867 5867 5867 5867 5867 5866 5865 5863
5790 5794 5797 5802 5805 5809 5815 5818 5821 5825 5826 5828 5830 5832 5834 5836 5838 5838 5840 5842 5845 5847 5849 5851 5853 5855 5856 5858 5859 5860 5860 5860 5861 5862 5862 5862 5862 5862 5862 5862 5861 5860 5859 5858
5781 5785 5789 5793 5796 5803 5806 5808 5811 5813 5816 5818 5821 5823 5825 5827 5828 5828 5830 5834 5837 5839 5841 5843 5845 5847 5849 5850 5852 5853 5854 5854 5854 5855 5856 5856 5856 5856 5856 5855 5855 5854 5853 5852
5773 5778 5781 5785 5789 5793 5796 5798 5801 5804 5807 5810 5812 5814 5817 5819 5819 5820 5822 5825 5828 5831 5833 5835 5837 5838 5840 5842 5843 5845 5846 5847 5848 5848 5849 5849 5849 5849 5848 5848 5847 5847 5846 5845
5765 5768 5772 5775 5779 5783 5785 5788 5792 5795 5798 5801 5803 5805 5807 5809 5811 5812 5814 5817 5819 5821 5824 5826 5828 5830 5831 5833 5835 5837 5838 5839 5840 5840 5841 5841 5842 5842 5841 5841 5840 5839 5839 5838
5755 5759 5762 5765 5769 5772 5775 5778 5782 5786 5788 5791 5793 5796 5798 5799 5801 5803 5806 5808 5810 5812 5815 5817 5819 5821 5823 5824 5826 5828 5829 5830 5831 5832 5833 5833 5833 5833 5833 5832 5832 5831 5831 5830
5747 5749 5752 5755 5760 5763 5766 5769 5772 5775 5778 5781 5784 5786 5787 5789 5791 5793 5796 5799 5801 5804 5806 5807 5809 5811 5814 5815 5817 5819 5820 5821 5823 5823 5824 5825 5825 5824 5824 5824 5823 5822 5822 5821